Year,Month,Day,Hour,Minute,Value (Times are PST for temperature in C)
2020,08,06,00,00,17.50
2020,08,06,00,01,17.50
2020,08,06,00,02,17.40
2020,08,06,00,03,17.40
2020,08,06,00,04,17.40
2020,08,06,00,05,17.40
2020,08,06,00,06,17.40
2020,08,06,00,07,17.40
2020,08,06,00,08,17.40
2020,08,06,00,09,17.40
2020,08,06,00,10,17.40
2020,08,06,00,11,17.40
2020,08,06,00,12,17.30
2020,08,06,00,13,17.30
2020,08,06,00,14,17.30
2020,08,06,00,15,17.30
2020,08,06,00,16,17.30
2020,08,06,00,17,17.30
2020,08,06,00,18,17.30
2020,08,06,00,19,17.30
2020,08,06,00,20,17.30
2020,08,06,00,21,17.30
2020,08,06,00,22,17.30
2020,08,06,00,23,17.30
2020,08,06,00,24,17.30
2020,08,06,00,25,17.30
2020,08,06,00,26,17.30
2020,08,06,00,27,17.30
2020,08,06,00,28,17.30
2020,08,06,00,29,17.30
2020,08,06,00,30,17.20
2020,08,06,00,31,17.30
2020,08,06,00,32,17.20
2020,08,06,00,33,17.30
2020,08,06,00,34,17.30
2020,08,06,00,35,17.20
2020,08,06,00,36,17.30
2020,08,06,00,37,17.30
2020,08,06,00,38,17.30
2020,08,06,00,39,17.30
2020,08,06,00,40,17.30
2020,08,06,00,41,17.30
2020,08,06,00,42,17.30
2020,08,06,00,43,17.40
2020,08,06,00,44,17.40
2020,08,06,00,45,17.40
2020,08,06,00,46,17.40
2020,08,06,00,47,17.40
2020,08,06,00,48,17.50
2020,08,06,00,49,17.50
2020,08,06,00,50,17.60
2020,08,06,00,51,17.60
2020,08,06,00,52,17.70
2020,08,06,00,53,17.80
2020,08,06,00,54,17.80
2020,08,06,00,55,17.90
2020,08,06,00,56,18.00
2020,08,06,00,57,18.10
2020,08,06,00,58,18.20
2020,08,06,00,59,18.30
2020,08,06,01,00,18.40
2020,08,06,01,01,18.40
2020,08,06,01,02,18.40
2020,08,06,01,03,18.40
2020,08,06,01,04,18.40
2020,08,06,01,05,18.40
2020,08,06,01,06,18.40
2020,08,06,01,07,18.40
2020,08,06,01,08,18.30
2020,08,06,01,09,18.30
2020,08,06,01,10,18.30
2020,08,06,01,11,18.20
2020,08,06,01,12,18.20
2020,08,06,01,13,18.10
2020,08,06,01,14,18.00
2020,08,06,01,15,18.00
2020,08,06,01,16,17.90
2020,08,06,01,17,17.90
2020,08,06,01,18,17.90
2020,08,06,01,19,17.80
2020,08,06,01,20,17.80
2020,08,06,01,21,17.70
2020,08,06,01,22,17.70
2020,08,06,01,23,17.70
2020,08,06,01,24,17.60
2020,08,06,01,25,17.60
2020,08,06,01,26,17.60
2020,08,06,01,27,17.60
2020,08,06,01,28,17.60
2020,08,06,01,29,17.60
2020,08,06,01,30,17.50
2020,08,06,01,31,17.50
2020,08,06,01,32,17.50
2020,08,06,01,33,17.40
2020,08,06,01,34,17.40
2020,08,06,01,35,17.40
2020,08,06,01,36,17.30
2020,08,06,01,37,17.30
2020,08,06,01,38,17.20
2020,08,06,01,39,17.20
2020,08,06,01,40,17.20
2020,08,06,01,41,17.10
2020,08,06,01,42,17.10
2020,08,06,01,43,17.10
2020,08,06,01,44,17.00
2020,08,06,01,45,17.00
2020,08,06,01,46,17.00
2020,08,06,01,47,16.90
2020,08,06,01,48,16.90
2020,08,06,01,49,16.90
2020,08,06,01,50,16.90
2020,08,06,01,51,16.90
2020,08,06,01,52,16.90
2020,08,06,01,53,16.90
2020,08,06,01,54,16.90
2020,08,06,01,55,16.90
2020,08,06,01,56,16.90
2020,08,06,01,57,16.90
2020,08,06,01,58,16.80
2020,08,06,01,59,16.80
2020,08,06,02,00,16.80
2020,08,06,02,01,16.80
2020,08,06,02,02,16.80
2020,08,06,02,03,16.80
2020,08,06,02,04,16.80
2020,08,06,02,05,16.80
2020,08,06,02,06,16.80
2020,08,06,02,07,16.80
2020,08,06,02,08,16.70
2020,08,06,02,09,16.70
2020,08,06,02,10,16.70
2020,08,06,02,11,16.70
2020,08,06,02,12,16.70
2020,08,06,02,13,16.70
2020,08,06,02,14,16.70
2020,08,06,02,15,16.70
2020,08,06,02,16,16.70
2020,08,06,02,17,16.70
2020,08,06,02,18,16.70
2020,08,06,02,19,16.70
2020,08,06,02,20,16.70
2020,08,06,02,21,16.70
2020,08,06,02,22,16.60
2020,08,06,02,23,16.60
2020,08,06,02,24,16.60
2020,08,06,02,25,16.60
2020,08,06,02,26,16.60
2020,08,06,02,27,16.60
2020,08,06,02,28,16.60
2020,08,06,02,29,16.60
2020,08,06,02,30,16.60
2020,08,06,02,31,16.60
2020,08,06,02,32,16.60
2020,08,06,02,33,16.60
2020,08,06,02,34,16.60
2020,08,06,02,35,16.60
2020,08,06,02,36,16.50
2020,08,06,02,37,16.60
2020,08,06,02,38,16.60
2020,08,06,02,39,16.50
2020,08,06,02,40,16.50
2020,08,06,02,41,16.50
2020,08,06,02,42,16.50
2020,08,06,02,43,16.50
2020,08,06,02,44,16.50
2020,08,06,02,45,16.50
2020,08,06,02,46,16.40
2020,08,06,02,47,16.40
2020,08,06,02,48,16.40
2020,08,06,02,49,16.40
2020,08,06,02,50,16.40
2020,08,06,02,51,16.40
2020,08,06,02,52,16.40
2020,08,06,02,53,16.30
2020,08,06,02,54,16.30
2020,08,06,02,55,16.30
2020,08,06,02,56,16.30
2020,08,06,02,57,16.30
2020,08,06,02,58,16.30
2020,08,06,02,59,16.20
2020,08,06,03,00,16.20
2020,08,06,03,01,16.20
2020,08,06,03,02,16.20
2020,08,06,03,03,16.20
2020,08,06,03,04,16.10
2020,08,06,03,05,16.10
2020,08,06,03,06,16.10
2020,08,06,03,07,16.10
2020,08,06,03,08,16.10
2020,08,06,03,09,16.10
2020,08,06,03,10,16.00
2020,08,06,03,11,16.00
2020,08,06,03,12,16.00
2020,08,06,03,13,16.00
2020,08,06,03,14,15.90
2020,08,06,03,15,15.90
2020,08,06,03,16,15.90
2020,08,06,03,17,15.90
2020,08,06,03,18,15.90
2020,08,06,03,19,15.90
2020,08,06,03,20,15.90
2020,08,06,03,21,15.90
2020,08,06,03,22,15.90
2020,08,06,03,23,15.80
2020,08,06,03,24,15.80
2020,08,06,03,25,15.80
2020,08,06,03,26,15.80
2020,08,06,03,27,15.80
2020,08,06,03,28,15.80
2020,08,06,03,29,15.80
2020,08,06,03,30,15.80
2020,08,06,03,31,15.80
2020,08,06,03,32,15.80
2020,08,06,03,33,15.80
2020,08,06,03,34,15.70
2020,08,06,03,35,15.70
2020,08,06,03,36,15.70
2020,08,06,03,37,15.70
2020,08,06,03,38,15.70
2020,08,06,03,39,15.70
2020,08,06,03,40,15.70
2020,08,06,03,41,15.70
2020,08,06,03,42,15.70
2020,08,06,03,43,15.70
2020,08,06,03,44,15.70
2020,08,06,03,45,15.70
2020,08,06,03,46,15.70
2020,08,06,03,47,15.70
2020,08,06,03,48,15.70
2020,08,06,03,49,15.60
2020,08,06,03,50,15.60
2020,08,06,03,51,15.60
2020,08,06,03,52,15.60
2020,08,06,03,53,15.60
2020,08,06,03,54,15.60
2020,08,06,03,55,15.60
2020,08,06,03,56,15.60
2020,08,06,03,57,15.60
2020,08,06,03,58,15.60
2020,08,06,03,59,15.60
2020,08,06,04,00,15.60
2020,08,06,04,01,15.60
2020,08,06,04,02,15.60
2020,08,06,04,03,15.60
2020,08,06,04,04,15.60
2020,08,06,04,05,15.60
2020,08,06,04,06,15.50
2020,08,06,04,07,15.60
2020,08,06,04,08,15.50
2020,08,06,04,09,15.50
2020,08,06,04,10,15.50
2020,08,06,04,11,15.60
2020,08,06,04,12,15.50
2020,08,06,04,13,15.50
2020,08,06,04,14,15.50
2020,08,06,04,15,15.50
2020,08,06,04,16,15.50
2020,08,06,04,17,15.50
2020,08,06,04,18,15.50
2020,08,06,04,19,15.50
2020,08,06,04,20,15.50
2020,08,06,04,21,15.50
2020,08,06,04,22,15.50
2020,08,06,04,23,15.50
2020,08,06,04,24,15.50
2020,08,06,04,25,15.50
2020,08,06,04,26,15.50
2020,08,06,04,27,15.50
2020,08,06,04,28,15.40
2020,08,06,04,29,15.40
2020,08,06,04,30,15.40
2020,08,06,04,31,15.40
2020,08,06,04,32,15.40
2020,08,06,04,33,15.40
2020,08,06,04,34,15.40
2020,08,06,04,35,15.40
2020,08,06,04,36,15.50
2020,08,06,04,37,15.50
2020,08,06,04,38,15.50
2020,08,06,04,39,15.50
2020,08,06,04,40,15.50
2020,08,06,04,41,15.50
2020,08,06,04,42,15.50
2020,08,06,04,43,15.50
2020,08,06,04,44,15.50
2020,08,06,04,45,15.50
2020,08,06,04,46,15.50
2020,08,06,04,47,15.50
2020,08,06,04,48,15.50
2020,08,06,04,49,15.50
2020,08,06,04,50,15.50
2020,08,06,04,51,15.40
2020,08,06,04,52,15.50
2020,08,06,04,53,15.50
2020,08,06,04,54,15.50
2020,08,06,04,55,15.50
2020,08,06,04,56,15.50
2020,08,06,04,57,15.50
2020,08,06,04,58,15.50
2020,08,06,04,59,15.50
2020,08,06,05,00,15.50
2020,08,06,05,01,15.50
2020,08,06,05,02,15.50
2020,08,06,05,03,15.40
2020,08,06,05,04,15.50
2020,08,06,05,05,15.50
2020,08,06,05,06,15.50
2020,08,06,05,07,15.50
2020,08,06,05,08,15.50
2020,08,06,05,09,15.40
2020,08,06,05,10,15.40
2020,08,06,05,11,15.40
2020,08,06,05,12,15.50
2020,08,06,05,13,15.40
2020,08,06,05,14,15.50
2020,08,06,05,15,15.40
2020,08,06,05,16,15.40
2020,08,06,05,17,15.50
2020,08,06,05,18,15.40
2020,08,06,05,19,15.40
2020,08,06,05,20,15.40
2020,08,06,05,21,15.40
2020,08,06,05,22,15.40
2020,08,06,05,23,15.40
2020,08,06,05,24,15.40
2020,08,06,05,25,15.40
2020,08,06,05,26,15.40
2020,08,06,05,27,15.40
2020,08,06,05,28,15.40
2020,08,06,05,29,15.40
2020,08,06,05,30,15.40
2020,08,06,05,31,15.40
2020,08,06,05,32,15.40
2020,08,06,05,33,15.40
2020,08,06,05,34,15.40
2020,08,06,05,35,15.40
2020,08,06,05,36,15.30
2020,08,06,05,37,15.30
2020,08,06,05,38,15.30
2020,08,06,05,39,15.30
2020,08,06,05,40,15.30
2020,08,06,05,41,15.30
2020,08,06,05,42,15.30
2020,08,06,05,43,15.30
2020,08,06,05,44,15.30
2020,08,06,05,45,15.30
2020,08,06,05,46,15.30
2020,08,06,05,47,15.30
2020,08,06,05,48,15.30
2020,08,06,05,49,15.30
2020,08,06,05,50,15.30
2020,08,06,05,51,15.30
2020,08,06,05,52,15.30
2020,08,06,05,53,15.30
2020,08,06,05,54,15.30
2020,08,06,05,55,15.30
2020,08,06,05,56,15.30
2020,08,06,05,57,15.30
2020,08,06,05,58,15.30
2020,08,06,05,59,15.30
2020,08,06,06,00,15.30
2020,08,06,06,01,15.30
2020,08,06,06,02,15.30
2020,08,06,06,03,15.30
2020,08,06,06,04,15.30
2020,08,06,06,05,15.30
2020,08,06,06,06,15.30
2020,08,06,06,07,15.30
2020,08,06,06,08,15.30
2020,08,06,06,09,15.30
2020,08,06,06,10,15.20
2020,08,06,06,11,15.20
2020,08,06,06,12,15.20
2020,08,06,06,13,15.20
2020,08,06,06,14,15.20
2020,08,06,06,15,15.20
2020,08,06,06,16,15.20
2020,08,06,06,17,15.20
2020,08,06,06,18,15.20
2020,08,06,06,19,15.20
2020,08,06,06,20,15.20
2020,08,06,06,21,15.20
2020,08,06,06,22,15.20
2020,08,06,06,23,15.20
2020,08,06,06,24,15.20
2020,08,06,06,25,15.20
2020,08,06,06,26,15.20
2020,08,06,06,27,15.20
2020,08,06,06,28,15.20
2020,08,06,06,29,15.20
2020,08,06,06,30,15.20
2020,08,06,06,31,15.20
2020,08,06,06,32,15.20
2020,08,06,06,33,15.20
2020,08,06,06,34,15.20
2020,08,06,06,35,15.20
2020,08,06,06,36,15.20
2020,08,06,06,37,15.20
2020,08,06,06,38,15.20
2020,08,06,06,39,15.20
2020,08,06,06,40,15.20
2020,08,06,06,41,15.20
2020,08,06,06,42,15.20
2020,08,06,06,43,15.20
2020,08,06,06,44,15.20
2020,08,06,06,45,15.20
2020,08,06,06,46,15.20
2020,08,06,06,47,15.20
2020,08,06,06,48,15.20
2020,08,06,06,49,15.20
2020,08,06,06,50,15.20
2020,08,06,06,51,15.20
2020,08,06,06,52,15.10
2020,08,06,06,53,15.20
2020,08,06,06,54,15.10
2020,08,06,06,55,15.10
2020,08,06,06,56,15.10
2020,08,06,06,57,15.10
2020,08,06,06,58,15.00
2020,08,06,06,59,15.00
2020,08,06,07,00,15.00
2020,08,06,07,01,15.00
2020,08,06,07,02,15.00
2020,08,06,07,03,15.00
2020,08,06,07,04,15.00
2020,08,06,07,05,15.00
2020,08,06,07,06,14.90
2020,08,06,07,07,14.90
2020,08,06,07,08,14.90
2020,08,06,07,09,14.90
2020,08,06,07,10,14.90
2020,08,06,07,11,14.90
2020,08,06,07,12,14.90
2020,08,06,07,13,14.90
2020,08,06,07,14,14.80
2020,08,06,07,15,14.80
2020,08,06,07,16,14.80
2020,08,06,07,17,14.80
2020,08,06,07,18,14.70
2020,08,06,07,19,14.70
2020,08,06,07,20,14.70
2020,08,06,07,21,14.70
2020,08,06,07,22,14.70
2020,08,06,07,23,14.70
2020,08,06,07,24,14.70
2020,08,06,07,25,14.70
2020,08,06,07,26,14.60
2020,08,06,07,27,14.60
2020,08,06,07,28,14.60
2020,08,06,07,29,14.60
2020,08,06,07,30,14.60
2020,08,06,07,31,14.60
2020,08,06,07,32,14.60
2020,08,06,07,33,14.60
2020,08,06,07,34,14.60
2020,08,06,07,35,14.60
2020,08,06,07,36,14.50
2020,08,06,07,37,14.60
2020,08,06,07,38,14.60
2020,08,06,07,39,14.60
2020,08,06,07,40,14.60
2020,08,06,07,41,14.60
2020,08,06,07,42,14.50
2020,08,06,07,43,14.50
2020,08,06,07,44,14.50
2020,08,06,07,45,14.50
2020,08,06,07,46,14.50
2020,08,06,07,47,14.50
2020,08,06,07,48,14.50
2020,08,06,07,49,14.50
2020,08,06,07,50,14.50
2020,08,06,07,51,14.40
2020,08,06,07,52,14.40
2020,08,06,07,53,14.40
2020,08,06,07,54,14.40
2020,08,06,07,55,14.40
2020,08,06,07,56,14.40
2020,08,06,07,57,14.40
2020,08,06,07,58,14.40
2020,08,06,07,59,14.40
2020,08,06,08,00,14.40
2020,08,06,08,01,14.40
2020,08,06,08,02,14.40
2020,08,06,08,03,14.40
2020,08,06,08,04,14.40
2020,08,06,08,05,14.40
2020,08,06,08,06,14.40
2020,08,06,08,07,14.40
2020,08,06,08,08,14.40
2020,08,06,08,09,14.40
2020,08,06,08,10,14.40
2020,08,06,08,11,14.40
2020,08,06,08,12,14.40
2020,08,06,08,13,14.40
2020,08,06,08,14,14.40
2020,08,06,08,15,14.40
2020,08,06,08,16,14.40
2020,08,06,08,17,14.40
2020,08,06,08,18,14.40
2020,08,06,08,19,14.40
2020,08,06,08,20,14.40
2020,08,06,08,21,14.40
2020,08,06,08,22,14.40
2020,08,06,08,23,14.40
2020,08,06,08,24,14.40
2020,08,06,08,25,14.40
2020,08,06,08,26,14.40
2020,08,06,08,27,14.40
2020,08,06,08,28,14.40
2020,08,06,08,29,14.30
2020,08,06,08,30,14.30
2020,08,06,08,31,14.30
2020,08,06,08,32,14.30
2020,08,06,08,33,14.30
2020,08,06,08,34,14.30
2020,08,06,08,35,14.30
2020,08,06,08,36,14.30
2020,08,06,08,37,14.20
2020,08,06,08,38,14.30
2020,08,06,08,39,14.30
2020,08,06,08,40,14.30
2020,08,06,08,41,14.20
2020,08,06,08,42,14.20
2020,08,06,08,43,14.30
2020,08,06,08,44,14.30
2020,08,06,08,45,14.30
2020,08,06,08,46,14.30
2020,08,06,08,47,14.30
2020,08,06,08,48,14.30
2020,08,06,08,49,14.30
2020,08,06,08,50,14.30
2020,08,06,08,51,14.30
2020,08,06,08,52,14.30
2020,08,06,08,53,14.30
2020,08,06,08,54,14.30
2020,08,06,08,55,14.30
2020,08,06,08,56,14.30
2020,08,06,08,57,14.30
2020,08,06,08,58,14.30
2020,08,06,08,59,14.30
2020,08,06,09,00,14.30
2020,08,06,09,01,14.30
2020,08,06,09,02,14.30
2020,08,06,09,03,14.20
2020,08,06,09,04,14.20
2020,08,06,09,05,14.10
2020,08,06,09,06,14.10
2020,08,06,09,07,14.00
2020,08,06,09,08,14.00
2020,08,06,09,09,14.00
2020,08,06,09,10,13.90
2020,08,06,09,11,13.80
2020,08,06,09,12,13.80
2020,08,06,09,13,13.80
2020,08,06,09,14,13.80
2020,08,06,09,15,13.80
2020,08,06,09,16,13.80
2020,08,06,09,17,13.80
2020,08,06,09,18,13.80
2020,08,06,09,19,13.80
2020,08,06,09,20,13.80
2020,08,06,09,21,13.80
2020,08,06,09,22,13.80
2020,08,06,09,23,13.90
2020,08,06,09,24,13.90
2020,08,06,09,25,13.90
2020,08,06,09,26,14.00
2020,08,06,09,27,14.00
2020,08,06,09,28,14.00
2020,08,06,09,29,14.00
2020,08,06,09,30,14.00
2020,08,06,09,31,14.10
2020,08,06,09,32,14.10
2020,08,06,09,33,14.10
2020,08,06,09,34,14.10
2020,08,06,09,35,14.10
2020,08,06,09,36,14.20
2020,08,06,09,37,14.20
2020,08,06,09,38,14.20
2020,08,06,09,39,14.20
2020,08,06,09,40,14.20
2020,08,06,09,41,14.20
2020,08,06,09,42,14.20
2020,08,06,09,43,14.20
2020,08,06,09,44,14.30
2020,08,06,09,45,14.30
2020,08,06,09,46,14.30
2020,08,06,09,47,14.30
2020,08,06,09,48,14.30
2020,08,06,09,49,14.30
2020,08,06,09,50,14.30
2020,08,06,09,51,14.40
2020,08,06,09,52,14.40
2020,08,06,09,53,14.40
2020,08,06,09,54,14.40
2020,08,06,09,55,14.40
2020,08,06,09,56,14.40
2020,08,06,09,57,14.40
2020,08,06,09,58,14.40
2020,08,06,09,59,14.40
2020,08,06,10,00,14.40
2020,08,06,10,01,14.40
2020,08,06,10,02,14.40
2020,08,06,10,03,14.50
2020,08,06,10,04,14.50
2020,08,06,10,05,14.60
2020,08,06,10,06,14.60
2020,08,06,10,07,14.70
2020,08,06,10,08,14.70
2020,08,06,10,09,14.80
2020,08,06,10,10,14.80
2020,08,06,10,11,14.90
2020,08,06,10,12,14.90
2020,08,06,10,13,15.00
2020,08,06,10,14,15.00
2020,08,06,10,15,15.00
2020,08,06,10,16,15.10
2020,08,06,10,17,15.10
2020,08,06,10,18,15.20
2020,08,06,10,19,15.20
2020,08,06,10,20,15.20
2020,08,06,10,21,15.30
2020,08,06,10,22,15.30
2020,08,06,10,23,15.30
2020,08,06,10,24,15.30
2020,08,06,10,25,15.30
2020,08,06,10,26,15.40
2020,08,06,10,27,15.40
2020,08,06,10,28,15.50
2020,08,06,10,29,15.60
2020,08,06,10,30,15.60
2020,08,06,10,31,15.70
2020,08,06,10,32,15.70
2020,08,06,10,33,15.70
2020,08,06,10,34,15.70
2020,08,06,10,35,15.80
2020,08,06,10,36,15.80
2020,08,06,10,37,15.80
2020,08,06,10,38,15.90
2020,08,06,10,39,15.90
2020,08,06,10,40,15.90
2020,08,06,10,41,16.00
2020,08,06,10,42,16.00
2020,08,06,10,43,16.00
2020,08,06,10,44,16.00
2020,08,06,10,45,16.10
2020,08,06,10,46,16.10
2020,08,06,10,47,16.10
2020,08,06,10,48,16.10
2020,08,06,10,49,16.20
2020,08,06,10,50,16.20
2020,08,06,10,51,16.30
2020,08,06,10,52,16.30
2020,08,06,10,53,16.30
2020,08,06,10,54,16.30
2020,08,06,10,55,16.30
2020,08,06,10,56,16.30
2020,08,06,10,57,16.30
2020,08,06,10,58,16.30
2020,08,06,10,59,16.30
2020,08,06,11,00,16.30
2020,08,06,11,01,16.30
2020,08,06,11,02,16.40
2020,08,06,11,03,16.40
2020,08,06,11,04,16.40
2020,08,06,11,05,16.50
2020,08,06,11,06,16.50
2020,08,06,11,07,16.60
2020,08,06,11,08,16.60
2020,08,06,11,09,16.60
2020,08,06,11,10,16.70
2020,08,06,11,11,16.70
2020,08,06,11,12,16.70
2020,08,06,11,13,16.80
2020,08,06,11,14,16.80
2020,08,06,11,15,16.90
2020,08,06,11,16,16.90
2020,08,06,11,17,16.90
2020,08,06,11,18,16.90
2020,08,06,11,19,16.90
2020,08,06,11,20,17.00
2020,08,06,11,21,17.00
2020,08,06,11,22,17.10
2020,08,06,11,23,17.10
2020,08,06,11,24,17.10
2020,08,06,11,25,17.10
2020,08,06,11,26,17.10
2020,08,06,11,27,17.10
2020,08,06,11,28,17.20
2020,08,06,11,29,17.30
2020,08,06,11,30,17.30
2020,08,06,11,31,17.40
2020,08,06,11,32,17.40
2020,08,06,11,33,17.40
2020,08,06,11,34,17.40
2020,08,06,11,35,17.50
2020,08,06,11,36,17.50
2020,08,06,11,37,17.50
2020,08,06,11,38,17.50
2020,08,06,11,39,17.50
2020,08,06,11,40,17.60
2020,08,06,11,41,17.60
2020,08,06,11,42,17.60
2020,08,06,11,43,17.60
2020,08,06,11,44,17.70
2020,08,06,11,45,17.70
2020,08,06,11,46,17.70
2020,08,06,11,47,17.70
2020,08,06,11,48,17.70
2020,08,06,11,49,17.60
2020,08,06,11,50,17.60
2020,08,06,11,51,17.60
2020,08,06,11,52,17.70
2020,08,06,11,53,17.60
2020,08,06,11,54,17.70
2020,08,06,11,55,17.70
2020,08,06,11,56,17.70
2020,08,06,11,57,17.80
2020,08,06,11,58,17.80
2020,08,06,11,59,17.80
2020,08,06,12,00,17.90
2020,08,06,12,01,17.90
2020,08,06,12,02,17.90
2020,08,06,12,03,18.00
2020,08,06,12,04,18.00
2020,08,06,12,05,18.00
2020,08,06,12,06,18.10
2020,08,06,12,07,18.10
2020,08,06,12,08,18.20
2020,08,06,12,09,18.30
2020,08,06,12,10,18.50
2020,08,06,12,11,18.60
2020,08,06,12,12,18.70
2020,08,06,12,13,18.80
2020,08,06,12,14,18.80
2020,08,06,12,15,18.80
2020,08,06,12,16,18.80
2020,08,06,12,17,18.90
2020,08,06,12,18,18.90
2020,08,06,12,19,19.00
2020,08,06,12,20,19.10
2020,08,06,12,21,19.10
2020,08,06,12,22,19.10
2020,08,06,12,23,19.20
2020,08,06,12,24,19.20
2020,08,06,12,25,19.10
2020,08,06,12,26,19.00
2020,08,06,12,27,19.00
2020,08,06,12,28,18.90
2020,08,06,12,29,18.90
2020,08,06,12,30,18.90
2020,08,06,12,31,18.90
2020,08,06,12,32,18.90
2020,08,06,12,33,19.00
2020,08,06,12,34,19.10
2020,08,06,12,35,19.20
2020,08,06,12,36,19.10
2020,08,06,12,37,19.10
2020,08,06,12,38,19.10
2020,08,06,12,39,19.10
2020,08,06,12,40,19.20
2020,08,06,12,41,19.20
2020,08,06,12,42,19.20
2020,08,06,12,43,19.30
2020,08,06,12,44,19.30
2020,08,06,12,45,19.30
2020,08,06,12,46,19.30
2020,08,06,12,47,19.20
2020,08,06,12,48,19.20
2020,08,06,12,49,19.20
2020,08,06,12,50,19.30
2020,08,06,12,51,19.40
2020,08,06,12,52,19.50
2020,08,06,12,53,19.60
2020,08,06,12,54,19.70
2020,08,06,12,55,19.80
2020,08,06,12,56,19.90
2020,08,06,12,57,19.90
2020,08,06,12,58,19.80
2020,08,06,12,59,19.80
2020,08,06,13,00,19.90
2020,08,06,13,01,19.90
2020,08,06,13,02,19.90
2020,08,06,13,03,19.90
2020,08,06,13,04,20.00
2020,08,06,13,05,20.00
2020,08,06,13,06,20.00
2020,08,06,13,07,20.00
2020,08,06,13,08,20.00
2020,08,06,13,09,20.00
2020,08,06,13,10,20.10
2020,08,06,13,11,20.10
2020,08,06,13,12,20.10
2020,08,06,13,13,20.10
2020,08,06,13,14,20.20
2020,08,06,13,15,20.30
2020,08,06,13,16,20.40
2020,08,06,13,17,20.40
2020,08,06,13,18,20.50
2020,08,06,13,19,20.40
2020,08,06,13,20,20.40
2020,08,06,13,21,20.40
2020,08,06,13,22,20.50
2020,08,06,13,23,20.50
2020,08,06,13,24,20.40
2020,08,06,13,25,20.40
2020,08,06,13,26,20.40
2020,08,06,13,27,20.40
2020,08,06,13,28,20.40
2020,08,06,13,29,20.30
2020,08,06,13,30,20.40
2020,08,06,13,31,20.40
2020,08,06,13,32,20.30
2020,08,06,13,33,20.30
2020,08,06,13,34,20.30
2020,08,06,13,35,20.20
2020,08,06,13,36,20.10
2020,08,06,13,37,20.10
2020,08,06,13,38,20.00
2020,08,06,13,39,20.00
2020,08,06,13,40,20.00
2020,08,06,13,41,20.00
2020,08,06,13,42,20.10
2020,08,06,13,43,20.10
2020,08,06,13,44,20.10
2020,08,06,13,45,20.10
2020,08,06,13,46,20.00
2020,08,06,13,47,19.90
2020,08,06,13,48,19.90
2020,08,06,13,49,19.90
2020,08,06,13,50,19.90
2020,08,06,13,51,20.00
2020,08,06,13,52,20.00
2020,08,06,13,53,20.10
2020,08,06,13,54,20.10
2020,08,06,13,55,20.10
2020,08,06,13,56,20.10
2020,08,06,13,57,20.10
2020,08,06,13,58,20.20
2020,08,06,13,59,20.20
2020,08,06,14,00,20.20
2020,08,06,14,01,20.30
2020,08,06,14,02,20.30
2020,08,06,14,03,20.30
2020,08,06,14,04,20.40
2020,08,06,14,05,20.50
2020,08,06,14,06,20.60
2020,08,06,14,07,20.70
2020,08,06,14,08,20.70
2020,08,06,14,09,20.80
2020,08,06,14,10,20.80
2020,08,06,14,11,20.80
2020,08,06,14,12,20.80
2020,08,06,14,13,20.80
2020,08,06,14,14,20.80
2020,08,06,14,15,20.70
2020,08,06,14,16,20.70
2020,08,06,14,17,20.60
2020,08,06,14,18,20.50
2020,08,06,14,19,20.40
2020,08,06,14,20,20.40
2020,08,06,14,21,20.40
2020,08,06,14,22,20.40
2020,08,06,14,23,20.30
2020,08,06,14,24,20.30
2020,08,06,14,25,20.30
2020,08,06,14,26,20.20
2020,08,06,14,27,20.20
2020,08,06,14,28,20.20
2020,08,06,14,29,20.10
2020,08,06,14,30,20.10
2020,08,06,14,31,20.10
2020,08,06,14,32,20.10
2020,08,06,14,33,20.10
2020,08,06,14,34,20.10
2020,08,06,14,35,20.10
2020,08,06,14,36,20.10
2020,08,06,14,37,20.20
2020,08,06,14,38,20.20
2020,08,06,14,39,20.20
2020,08,06,14,40,20.20
2020,08,06,14,41,20.10
2020,08,06,14,42,20.10
2020,08,06,14,43,20.10
2020,08,06,14,44,20.00
2020,08,06,14,45,19.90
2020,08,06,14,46,19.90
2020,08,06,14,47,19.90
2020,08,06,14,48,19.80
2020,08,06,14,49,19.80
2020,08,06,14,50,19.80
2020,08,06,14,51,19.70
2020,08,06,14,52,19.70
2020,08,06,14,53,19.70
2020,08,06,14,54,19.70
2020,08,06,14,55,19.70
2020,08,06,14,56,19.60
2020,08,06,14,57,19.50
2020,08,06,14,58,19.40
2020,08,06,14,59,19.30
2020,08,06,15,00,19.10
2020,08,06,15,01,19.00
2020,08,06,15,02,18.90
2020,08,06,15,03,18.80
2020,08,06,15,04,18.80
2020,08,06,15,05,18.70
2020,08,06,15,06,18.70
2020,08,06,15,07,18.60
2020,08,06,15,08,18.60
2020,08,06,15,09,18.50
2020,08,06,15,10,18.50
2020,08,06,15,11,18.40
2020,08,06,15,12,18.40
2020,08,06,15,13,18.40
2020,08,06,15,14,18.40
2020,08,06,15,15,18.30
2020,08,06,15,16,18.30
2020,08,06,15,17,18.40
2020,08,06,15,18,18.40
2020,08,06,15,19,18.40
2020,08,06,15,20,18.40
2020,08,06,15,21,18.50
2020,08,06,15,22,18.50
2020,08,06,15,23,18.50
2020,08,06,15,24,18.50
2020,08,06,15,25,18.60
2020,08,06,15,26,18.60
2020,08,06,15,27,18.60
2020,08,06,15,28,18.60
2020,08,06,15,29,18.60
2020,08,06,15,30,18.70
2020,08,06,15,31,18.70
2020,08,06,15,32,18.70
2020,08,06,15,33,18.70
2020,08,06,15,34,18.80
2020,08,06,15,35,18.80
2020,08,06,15,36,18.90
2020,08,06,15,37,18.90
2020,08,06,15,38,18.90
2020,08,06,15,39,19.00
2020,08,06,15,40,19.00
2020,08,06,15,41,19.00
2020,08,06,15,42,19.00
2020,08,06,15,43,19.10
2020,08,06,15,44,19.10
2020,08,06,15,45,19.10
2020,08,06,15,46,19.20
2020,08,06,15,47,19.20
2020,08,06,15,48,19.30
2020,08,06,15,49,19.40
2020,08,06,15,50,19.40
2020,08,06,15,51,19.50
2020,08,06,15,52,19.50
2020,08,06,15,53,19.60
2020,08,06,15,54,19.70
2020,08,06,15,55,19.80
2020,08,06,15,56,19.90
2020,08,06,15,57,19.90
2020,08,06,15,58,20.00
2020,08,06,15,59,20.00
2020,08,06,16,00,20.10
2020,08,06,16,01,20.10
2020,08,06,16,02,20.00
2020,08,06,16,03,19.90
2020,08,06,16,04,19.90
2020,08,06,16,05,19.90
2020,08,06,16,06,19.90
2020,08,06,16,07,19.90
2020,08,06,16,08,19.80
2020,08,06,16,09,19.90
2020,08,06,16,10,19.90
2020,08,06,16,11,19.90
2020,08,06,16,12,20.00
2020,08,06,16,13,20.10
2020,08,06,16,14,20.10
2020,08,06,16,15,20.30
2020,08,06,16,16,20.40
2020,08,06,16,17,20.50
2020,08,06,16,18,20.60
2020,08,06,16,19,20.70
2020,08,06,16,20,20.90
2020,08,06,16,21,20.90
2020,08,06,16,22,20.90
2020,08,06,16,23,20.70
2020,08,06,16,24,20.60
2020,08,06,16,25,20.50
2020,08,06,16,26,20.50
2020,08,06,16,27,20.50
2020,08,06,16,28,20.50
2020,08,06,16,29,20.40
2020,08,06,16,30,20.50
2020,08,06,16,31,20.50
2020,08,06,16,32,20.50
2020,08,06,16,33,20.30
2020,08,06,16,34,20.30
2020,08,06,16,35,20.20
2020,08,06,16,36,20.20
2020,08,06,16,37,20.20
2020,08,06,16,38,20.20
2020,08,06,16,39,20.00
2020,08,06,16,40,19.90
2020,08,06,16,41,19.80
2020,08,06,16,42,19.70
2020,08,06,16,43,19.70
2020,08,06,16,44,19.50
2020,08,06,16,45,19.40
2020,08,06,16,46,19.40
2020,08,06,16,47,19.40
2020,08,06,16,48,19.50
2020,08,06,16,49,19.60
2020,08,06,16,50,19.70
2020,08,06,16,51,19.90
2020,08,06,16,52,19.90
2020,08,06,16,53,20.10
2020,08,06,16,54,20.20
2020,08,06,16,55,20.20
2020,08,06,16,56,20.30
2020,08,06,16,57,20.30
2020,08,06,16,58,20.30
2020,08,06,16,59,20.20
2020,08,06,17,00,20.00
2020,08,06,17,01,19.90
2020,08,06,17,02,19.90
2020,08,06,17,03,19.90
2020,08,06,17,04,20.00
2020,08,06,17,05,20.10
2020,08,06,17,06,20.10
2020,08,06,17,07,20.10
2020,08,06,17,08,20.20
2020,08,06,17,09,20.20
2020,08,06,17,10,20.10
2020,08,06,17,11,20.10
2020,08,06,17,12,20.10
2020,08,06,17,13,20.10
2020,08,06,17,14,20.20
2020,08,06,17,15,20.30
2020,08,06,17,16,20.30
2020,08,06,17,17,20.30
2020,08,06,17,18,20.40
2020,08,06,17,19,20.40